• Em Portugal
  • Lista de países
  • Para 7 dias
  • Temperatura da água
  • Mapas de satélite
  • Mapa do tempo
  • Widgets de tempo
  • user-avatar
    Iniciar Sessão

    Previsão horária em Fier

    Hoje, 16 Agosto, Quinta-feira

    Tempo Temperatura Precipitação Vento Pressão Humidade
    00:00 +25°C° 0,1 mm 1 m/s 757 mmHg 67%
    01:00 +25°C° 0 mm 1 m/s 757 mmHg 65%
    02:00 +24°C° 0,3 mm 1 m/s 757 mmHg 66%
    03:00 +24°C° 0,3 mm 2 m/s 757 mmHg 67%
    04:00 +24°C° 0,3 mm 2 m/s 757 mmHg 67%
    05:00 +25°C° 0,1 mm 2 m/s 757 mmHg 64%
    06:00 +26°C° 0,1 mm 2 m/s 757 mmHg 62%
    07:00 +27°C° 0,1 mm 2 m/s 757 mmHg 59%
    08:00 +29°C° 0,1 mm 2 m/s 757 mmHg 53%
    09:00 +31°C° 0,1 mm 1 m/s 757 mmHg 47%
    10:00 +32°C° 0,1 mm 1 m/s 757 mmHg 41%
    11:00 +32°C° 0,1 mm 2 m/s 757 mmHg 42%
    12:00 +32°C° 0,1 mm 2 m/s 757 mmHg 42%
    13:00 +32°C° 0,1 mm 2 m/s 757 mmHg 43%
    14:00 +31°C° 0,1 mm 2 m/s 757 mmHg 45%
    15:00 +31°C° 0,1 mm 2 m/s 757 mmHg 47%
    16:00 +30°C° 0,1 mm 3 m/s 757 mmHg 49%
    17:00 +29°C° 0,1 mm 3 m/s 757 mmHg 53%
    18:00 +28°C° 0,1 mm 3 m/s 757 mmHg 58%
    19:00 +26°C° 0,1 mm 3 m/s 757 mmHg 62%
    20:00 +26°C° 0,1 mm 3 m/s 758 mmHg 64%
    21:00 +25°C° 0,1 mm 2 m/s 758 mmHg 65%
    22:00 +24°C° 0,1 mm 2 m/s 758 mmHg 67%
    23:00 +24°C° 0 mm 2 m/s 758 mmHg 67%

    Amanhã, 17 Agosto, Sexta-feira

    Tempo Temperatura Precipitação Vento Pressão Humidade
    00:00 +24°C° 0 mm 2 m/s 758 mmHg 67%
    01:00 +24°C° 0 mm 2 m/s 758 mmHg 67%
    02:00 +24°C° 0 mm 2 m/s 758 mmHg 67%
    03:00 +23°C° 0 mm 2 m/s 758 mmHg 66%
    04:00 +23°C° 0 mm 2 m/s 758 mmHg 66%
    05:00 +25°C° 0 mm 2 m/s 758 mmHg 62%
    06:00 +26°C° 0 mm 2 m/s 758 mmHg 58%
    07:00 +28°C° 0 mm 1 m/s 758 mmHg 54%
    08:00 +30°C° 0 mm 1 m/s 758 mmHg 48%
    09:00 +32°C° 0 mm 1 m/s 758 mmHg 42%
    10:00 +35°C° 0 mm 2 m/s 758 mmHg 36%
    11:00 +35°C° 0 mm 2 m/s 758 mmHg 35%
    12:00 +36°C° 0 mm 3 m/s 758 mmHg 34%
    13:00 +36°C° 0 mm 3 m/s 758 mmHg 33%
    14:00 +35°C° 0 mm 3 m/s 758 mmHg 36%
    15:00 +35°C° 0 mm 3 m/s 758 mmHg 39%
    16:00 +34°C° 0 mm 4 m/s 757 mmHg 42%
    17:00 +31°C° 0 mm 3 m/s 758 mmHg 48%
    18:00 +29°C° 0 mm 2 m/s 758 mmHg 54%
    19:00 +27°C° 0 mm 2 m/s 758 mmHg 60%
    20:00 +27°C° 0 mm 1 m/s 758 mmHg 62%
    21:00 +26°C° 0 mm 1 m/s 758 mmHg 64%
    22:00 +25°C° 0 mm 1 m/s 759 mmHg 66%
    23:00 +25°C° 0 mm 1 m/s 759 mmHg 67%

    Depois de amanhã, 18 Agosto, Sábado

    Tempo Temperatura Precipitação Vento Pressão Humidade
    00:00 +25°C° 0 mm 1 m/s 759 mmHg 67%
    01:00 +25°C° 0 mm 1 m/s 758 mmHg 67%
    02:00 +25°C° 0 mm 1 m/s 758 mmHg 67%
    03:00 +24°C° 0 mm 1 m/s 758 mmHg 67%
    04:00 +24°C° 0 mm 1 m/s 758 mmHg 67%
    05:00 +26°C° 0 mm 1 m/s 758 mmHg 63%
    06:00 +27°C° 0 mm 1 m/s 758 mmHg 58%
    07:00 +28°C° 0 mm 1 m/s 758 mmHg 54%
    08:00 +30°C° 0 mm 1 m/s 758 mmHg 49%
    09:00 +32°C° 0 mm 2 m/s 759 mmHg 43%
    10:00 +35°C° 0 mm 2 m/s 759 mmHg 37%
    11:00 +36°C° 0 mm 2 m/s 758 mmHg 36%
    12:00 +36°C° 0 mm 3 m/s 758 mmHg 35%
    13:00 +37°C° 0 mm 4 m/s 758 mmHg 34%
    14:00 +36°C° 0 mm 4 m/s 758 mmHg 39%
    15:00 +35°C° 0 mm 4 m/s 758 mmHg 43%
    16:00 +34°C° 0 mm 4 m/s 758 mmHg 48%
    17:00 +32°C° 0,1 mm 4 m/s 758 mmHg 54%
    18:00 +30°C° 0,1 mm 3 m/s 758 mmHg 60%
    19:00 +28°C° 0,1 mm 2 m/s 758 mmHg 66%
    20:00 +28°C° 0,4 mm 2 m/s 759 mmHg 68%
    21:00 +27°C° 0,4 mm 2 m/s 759 mmHg 71%
    22:00 +26°C° 0,4 mm 2 m/s 760 mmHg 74%
    23:00 +26°C° 0,1 mm 2 m/s 759 mmHg 72%

    19 Agosto, Domingo

    Tempo Temperatura Precipitação Vento Pressão Humidade
    00:00 +26°C° 0,1 mm 2 m/s 759 mmHg 71%
    01:00 +26°C° 0,1 mm 2 m/s 759 mmHg 69%
    02:00 +26°C° 0 mm 2 m/s 759 mmHg 68%
    03:00 +25°C° 0 mm 2 m/s 759 mmHg 68%
    04:00 +25°C° 0 mm 2 m/s 759 mmHg 67%
    05:00 +26°C° 0 mm 2 m/s 759 mmHg 63%
    06:00 +28°C° 0 mm 2 m/s 759 mmHg 59%
    07:00 +29°C° 0 mm 2 m/s 759 mmHg 55%
    08:00 +31°C° 0 mm 2 m/s 759 mmHg 48%
    09:00 +34°C° 0 mm 2 m/s 759 mmHg 41%
    10:00 +36°C° 0 mm 2 m/s 759 mmHg 34%
    11:00 +37°C° 0 mm 3 m/s 759 mmHg 33%
    12:00 +37°C° 0 mm 3 m/s 759 mmHg 33%
    13:00 +37°C° 0 mm 4 m/s 758 mmHg 33%
    14:00 +36°C° 0 mm 4 m/s 758 mmHg 37%
    15:00 +35°C° 0 mm 4 m/s 758 mmHg 41%
    16:00 +33°C° 0 mm 4 m/s 758 mmHg 45%
    17:00 +31°C° 0 mm 3 m/s 758 mmHg 48%
    18:00 +30°C° 0 mm 3 m/s 758 mmHg 52%
    19:00 +29°C° 0 mm 2 m/s 759 mmHg 55%
    20:00 +28°C° 0 mm 2 m/s 759 mmHg 56%
    21:00 +28°C° 0 mm 2 m/s 759 mmHg 56%
    22:00 +27°C° 0 mm 2 m/s 759 mmHg 57%
    23:00 +27°C° 0 mm 2 m/s 759 mmHg 56%

    20 Agosto, Segunda-feira

    Tempo Temperatura Precipitação Vento Pressão Humidade
    00:00 +27°C° 0 mm 2 m/s 759 mmHg 55%
    01:00 +26°C° 0 mm 2 m/s 759 mmHg 54%
    02:00 +26°C° 0 mm 2 m/s 759 mmHg 54%
    03:00 +26°C° 0 mm 2 m/s 759 mmHg 54%
    04:00 +25°C° 0 mm 2 m/s 758 mmHg 54%
    05:00 +27°C° 0 mm 2 m/s 759 mmHg 52%
    06:00 +28°C° 0 mm 2 m/s 759 mmHg 51%
    07:00 +29°C° 0 mm 2 m/s 759 mmHg 49%
    08:00 +31°C° 0 mm 2 m/s 759 mmHg 43%
    09:00 +34°C° 0 mm 2 m/s 759 mmHg 37%
    10:00 +36°C° 0 mm 2 m/s 759 mmHg 31%
    11:00 +37°C° 0 mm 2 m/s 759 mmHg 30%
    12:00 +37°C° 0 mm 3 m/s 758 mmHg 29%
    13:00 +38°C° 0 mm 3 m/s 758 mmHg 28%
    14:00 +37°C° 0 mm 3 m/s 758 mmHg 31%
    15:00 +36°C° 0 mm 3 m/s 758 mmHg 34%
    16:00 +35°C° 0 mm 3 m/s 758 mmHg 37%
    17:00 +34°C° 0 mm 3 m/s 758 mmHg 41%
    18:00 +31°C° 0 mm 3 m/s 758 mmHg 45%
    19:00 +30°C° 0 mm 2 m/s 758 mmHg 49%
    20:00 +29°C° 0 mm 2 m/s 758 mmHg 50%
    21:00 +28°C° 0 mm 2 m/s 759 mmHg 50%
    22:00 +28°C° 0 mm 2 m/s 759 mmHg 51%
    23:00 +27°C° 0,1 mm 2 m/s 759 mmHg 51%

    21 Agosto, Terça-feira

    Tempo Temperatura Precipitação Vento Pressão Humidade
    00:00 +27°C° 0,1 mm 2 m/s 759 mmHg 50%
    01:00 +27°C° 0,1 mm 2 m/s 759 mmHg 49%
    02:00 +26°C° 0 mm 2 m/s 759 mmHg 50%
    03:00 +26°C° 0 mm 2 m/s 759 mmHg 50%
    04:00 +26°C° 0 mm 2 m/s 759 mmHg 50%
    05:00 +27°C° 0 mm 2 m/s 759 mmHg 50%
    06:00 +28°C° 0 mm 2 m/s 759 mmHg 49%
    07:00 +29°C° 0 mm 2 m/s 759 mmHg 48%
    08:00 +31°C° 0 mm 2 m/s 759 mmHg 43%
    09:00 +33°C° 0 mm 1 m/s 759 mmHg 37%
    10:00 +35°C° 0 mm 1 m/s 759 mmHg 32%
    11:00 +37°C° 0 mm 2 m/s 759 mmHg 31%
    12:00 +37°C° 0 mm 2 m/s 759 mmHg 31%
    13:00 +37°C° 0 mm 3 m/s 759 mmHg 31%
    14:00 +36°C° 0 mm 3 m/s 758 mmHg 34%
    15:00 +35°C° 0 mm 3 m/s 758 mmHg 38%
    16:00 +34°C° 0 mm 3 m/s 758 mmHg 41%
    17:00 +32°C° 0 mm 2 m/s 758 mmHg 45%
    18:00 +31°C° 0 mm 2 m/s 758 mmHg 49%
    19:00 +29°C° 0 mm 2 m/s 758 mmHg 53%
    20:00 +29°C° 0 mm 2 m/s 758 mmHg 54%
    21:00 +28°C° 0 mm 2 m/s 759 mmHg 56%
    22:00 +27°C° 0 mm 2 m/s 759 mmHg 57%
    23:00 +27°C° 0 mm 2 m/s 759 mmHg 57%
    Mostrar mais